Simultaneous Nadir Overpasses (SNOs) Predictions

Prediction of SNOs between METOP-B and NOAA-19 Satellite Orbit:

Table of predicted SNOs for the next 14.0 days since TLE Epoch: 11/11/2016
Index Date (METOP-B) Time (METOP-B) Lat,Lon (METOP-B) SZA (METOP-B ) Date (NOAA-19) Time (NOAA-19) Lat,Lon (NOAA-19) SZA (NOAA-19 ) Distance(km) Time Diff (sec)
1 11/11/2016 23:31:05 76.69,-169.76 94.46 11/11/2016 23:29:53 76.67,-170.92 94.39 29.88 72
2 11/12/2016 00:21:50 -76.53, -3.06 85.72 11/12/2016 00:20:45 -76.55, -3.16 85.71 3.25 65
3 11/12/2016 01:12:31 76.50, 164.16 94.26 11/12/2016 01:11:51 76.50, 164.25 94.26 2.39 40
4 11/12/2016 02:03:12 -76.51, -28.47 85.72 11/12/2016 02:02:46 -76.51, -28.51 85.73 1.18 26
5 11/12/2016 02:53:53 76.48, 138.76 94.26 11/12/2016 02:53:53 76.51, 138.72 94.29 3.15 0
6 11/12/2016 03:44:34 -76.49, -53.87 85.72 11/12/2016 03:44:47 -76.47, -53.87 85.74 2.26 13
7 11/12/2016 04:35:15 76.46, 113.35 94.26 11/12/2016 04:35:54 76.47, 113.36 94.27 0.82 39
8 11/12/2016 05:25:56 -76.47, -79.27 85.72 11/12/2016 05:26:49 -76.48, -79.40 85.72 3.34 53
9 11/12/2016 06:16:41 76.26, 87.29 94.06 11/12/2016 06:17:52 76.30, 88.51 94.14 32.37 71
10 11/22/2016 16:17:40 76.93, -60.46 97.28 11/22/2016 16:16:33 76.94, -63.47 97.22 75.60 67
11 11/22/2016 17:08:30 -76.56, 105.42 83.13 11/22/2016 17:07:20 -76.56, 105.42 83.14 0.58 70
12 11/22/2016 17:59:10 76.56, -87.26 96.88 11/22/2016 17:58:26 76.57, -87.39 96.88 3.54 44
13 11/22/2016 18:49:52 -76.55, 80.01 83.13 11/22/2016 18:49:21 -76.52, 80.06 83.16 2.94 31
14 11/22/2016 19:40:32 76.54,-112.66 96.88 11/22/2016 19:40:27 76.53,-112.75 96.86 2.71 5
15 11/22/2016 20:31:14 -76.53, 54.61 83.13 11/22/2016 20:31:23 -76.53, 54.52 83.14 2.17 9
16 11/22/2016 21:21:55 76.48,-138.24 96.83 11/22/2016 21:22:28 76.49,-138.12 96.85 3.51 33
17 11/22/2016 22:12:36 -76.51, 29.20 83.14 11/22/2016 22:13:24 -76.49, 29.16 83.15 2.41 48
18 11/22/2016 23:03:17 76.46,-163.64 96.82 11/22/2016 23:04:29 76.46,-163.48 96.83 4.29 72




NCC Satellite Simultaneous Nadir Overpasses (SNOs) Prediction Service
